SCOUT X-4 DEB, 977

Orbit data source: Space-Track

SCOUT X-4 DEB, 977 is space debris in LEO originally from a launch on Sat, 10 Oct 1964 UTC launched from the Air Force Western Test Range (AFWTR). Debris objects in space refer to the collection of defunct objects orbiting the Earth. Examples of debris include non-operational satellites, rocket bodies, and fragments generated from explosions, collisions, or faulty payload assembly.

Loading next visibility...
Identifier
977, 1964-064D
Orbit
LEO
Country
Flag of USUS
Related business
Manufacturer
APL
Mission
Spacecraft
Bus & Motor
Unknown
Mass
Unknown
Launch date (UTC)
1964-10-10 (61 years ago)
Launch vehicle
Unknown
Launch site
Air Force Western Test Range (AFWTR)
Object type
Payload
Rocket body
Debris
Shape & HBR
Unknown shape, 0.1 m
Radar Cross Section
Small (<0.1 m²)

Expand to show TLE details & history
Last TLE update: 1 day ago

TLE from 1 day ago
0 SCOUT X-4 DEB
1 00977U 64064D   25305.29428625  .00000343  00000-0  30925-3 0  9998
2 00977  80.0476  30.5910 0126492  28.1644 332.6271 13.78969772 58025
Epoch: 2025-11-01T07:03Z
TLE epoch observation values (Epoch: 2025-11-01T07:03:46.332Z)
Latitude
0.00006°
Longitude
-116.17847°
Altitude
888.083 km
Speed
7.45 km/s
True Right ascension
02h 02m 21s
True Declination
0° 00' 00"
Sunlit
Object was in full shadow at epoch
Visualization orbit readout
Latitude
Unknown
Longitude
Unknown
Altitude
Unknown
Speed
Unknown
Apparent Right ascension
Unknown
Apparent Declination
Unknown
Sunlit
N/A
Visualization observer readout
Local Sidereal Time
13:03:58
Azimuth
Unknown
Elevation
Unknown
Doppler factor
Unknown
Orbital elements
Apogee altitude
1,057.701 km
Perigee altitude
871.936 km
Semi-major axis
7,342.956 km
Eccentricity
0.01265
Inclination
80.0476°
RAAN
30.591°
Arg. of periapsis
28.1644°
True anomaly
331.95118°
Mean anomaly
332.6271°
Eccentric anomaly
332.2901°
Mean motion
3.44935 °/min
Orbital period
104.37 mins
BSTAR
0.00030925
Loading maneuver chart data...
Computing Atmospheric mass density...
Loading historical data...
Loading historical data...
Loading historical data...
Loading historical data...
Loading historical data...
Loading historical data...
Loading historical data...
Other satellites on launch #64 in the year 1964 (1964-10-10 UTC)

Documentation

Showing up to 5 results
|